User: anonymous   Login
Location: Unspecified
(0.0000°N, 0.0000°E)
Time: 08:06:46
(UTC+00:00)
Language:

Orsted - Orbit

View from above orbital plane
View from above orbital plane
View from above satellite
View from above satellite

Ground track
Ground track

The orbit data is extracted from the following two-line orbital elements,

1 25635U 99008B   19051.94120159 +.00000046 +00000-0 +18191-4 0  9998
2 25635 096.4680 183.6116 0140473 089.7467 271.9827 14.48131178054780
Epoch (UTC): 20 February 2019 22:35:19
Eccentricity: 0.0140473
inclination: 96.4680°
perigee height: 632 km
apogee height: 831 km
right ascension of ascending node: 183.6116°
argument of perigee: 89.7467°
revolutions per day: 14.48131178
mean anomaly at epoch: 271.9827°
orbit number at epoch: 5478

The dashed part of the orbit path shows where the satellite is in the earth's shadow,  

DLR